Date String (YYYY-MM-DD hh:mm:ss) UTC,Instrument flags,Ambient pressure (hPa),Sample flow (lpm),Bypass flow (lpm),Sample temperature (°C),Ambient temperature (°C),ASC tube jacket temperature (°C),LED temperature (°C),Box temperature (°C),Sample RH (%),Span deviation,Mass concentration (μg/m³),Mass concentration (μg/m³),Mass concentration (μg/m³)
DateTimeUTC,F1_M11,P_M11,Q1_M11,Q2_M11,T1_M11,T2_M11,T3_M11,T4_M11,T5_M11,U1_M11,ZSPAN_M11,X0_M11,X2_M11,X1_M11
2022-03-03 21:00:00,,0824.6,5.02,0.00,30.6,28.6,00.0,39.5,32.1,08.2,-001.2,0013.35,0004.99,0004.43
2022-03-03 21:01:00,,0824.6,5.00,0.00,30.5,26.9,00.0,39.4,31.8,08.3,-000.2,0012.31,0004.98,0004.43
2022-03-03 21:02:00,,0824.5,5.00,0.00,30.4,26.8,00.0,39.4,31.6,08.4,0001.2,0012.43,0004.98,0004.43
2022-03-03 21:03:00,,0824.5,5.01,0.00,30.3,27.2,00.0,39.3,31.6,08.5,0001.2,0012.78,0005.00,0004.43
2022-03-03 21:04:00,,0824.5,4.98,0.00,30.2,27.6,00.0,39.3,31.7,08.6,0000.8,0013.02,0005.01,0004.43
2022-03-03 21:05:00,,0824.5,5.01,0.00,30.2,28.0,00.0,39.3,31.7,08.7,0002.0,0012.65,0005.00,0004.42
2022-03-03 21:06:00,,0824.5,5.01,0.00,30.2,28.4,00.0,39.2,31.8,08.8,0003.3,0012.13,0004.96,0004.40
2022-03-03 21:07:00,,0824.5,5.00,0.00,30.2,28.6,00.0,39.2,31.9,08.8,0004.5,0011.73,0004.94,0004.38
2022-03-03 21:08:00,,0824.4,5.00,0.00,30.2,28.9,00.0,39.2,31.9,08.8,0003.0,0011.96,0004.92,0004.37
2022-03-03 21:09:00,,0824.4,5.00,0.00,30.3,29.0,00.0,39.2,32.0,08.5,0003.1,0011.49,0004.93,0004.40
2022-03-03 21:10:00,,0824.4,5.02,0.00,30.3,29.2,00.0,39.2,32.0,08.4,0002.6,0011.14,0004.91,0004.46
2022-03-03 21:11:00,,0824.4,4.99,0.00,30.3,29.3,00.0,39.2,32.0,08.3,0003.0,0011.54,0004.97,0004.52
2022-03-03 21:12:00,,0824.4,4.99,0.00,30.3,29.3,00.0,39.3,32.1,08.2,0002.5,0011.89,0005.05,0004.57
2022-03-03 21:13:00,,0824.4,5.01,0.00,30.4,29.4,00.0,39.3,32.1,08.2,0002.6,0012.09,0005.17,0004.64
2022-03-03 21:14:00,,0824.4,4.98,0.00,30.4,29.5,00.0,39.3,32.1,08.2,0003.6,0012.31,0005.25,0004.72
2022-03-03 21:15:00,,0824.4,5.00,0.00,30.4,29.6,00.0,39.3,32.1,08.2,0003.4,0012.83,0005.37,0004.80
2022-03-03 21:16:00,,0824.4,5.00,0.00,30.4,29.6,00.0,39.3,32.2,08.2,0001.3,0013.04,0005.45,0004.88
2022-03-03 21:17:00,,0824.4,5.01,0.00,30.4,29.6,00.0,39.3,32.2,08.2,0001.1,0014.04,0005.57,0004.98
2022-03-03 21:18:00,,0824.3,5.00,0.00,30.5,29.7,00.0,39.3,32.2,08.1,0001.0,0014.48,0005.68,0005.06
2022-03-03 21:19:00,,0824.3,5.00,0.00,30.5,29.7,00.0,39.3,32.3,08.1,0000.8,0014.55,0005.78,0005.16
2022-03-03 21:20:00,,0824.3,5.01,0.00,30.5,29.8,00.0,39.4,32.3,08.0,0000.2,0014.84,0005.88,0005.22
2022-03-03 21:21:00,,0824.3,4.99,0.00,30.5,29.8,00.0,39.4,32.3,08.2,-000.3,0014.24,0005.95,0005.26
2022-03-03 21:22:00,,0824.3,5.00,0.00,30.6,29.9,00.0,39.4,32.4,08.1,0000.0,0013.91,0005.99,0005.31
2022-03-03 21:23:00,,0824.3,5.01,0.00,30.6,29.1,00.0,39.4,32.2,08.1,-001.5,0013.79,0006.05,0005.36
2022-03-03 21:24:00,,0824.3,5.01,0.00,30.4,26.9,00.0,39.4,31.6,08.4,-002.1,0014.10,0006.06,0005.40
2022-03-03 21:25:00,,0824.3,4.99,0.00,30.3,26.2,00.0,39.4,31.4,08.4,-002.6,0015.06,0006.14,0005.44
2022-03-03 21:26:00,,0824.3,4.99,0.00,30.2,26.5,00.0,39.3,31.4,08.3,-002.4,0015.52,0006.21,0005.52
2022-03-03 21:27:00,,0824.3,5.01,0.00,30.1,27.0,00.0,39.2,31.4,08.5,-001.8,0015.85,0006.36,0005.61
2022-03-03 21:28:00,,0824.3,4.99,0.00,30.0,27.5,00.0,39.2,31.5,08.7,-002.1,0015.50,0006.46,0005.70
2022-03-03 21:29:00,,0824.3,5.00,0.00,30.0,27.9,00.0,39.1,31.6,08.7,-002.2,0015.54,0006.56,0005.79
2022-03-03 21:30:00,,0824.3,4.99,0.00,30.1,28.2,00.0,39.1,31.7,08.8,-001.8,0016.34,0006.69,0005.89
2022-03-03 21:31:00,,0824.3,5.00,0.00,30.1,28.4,00.0,39.1,31.7,08.6,-001.3,0016.58,0006.77,0005.97
2022-03-03 21:32:00,,0824.3,5.01,0.00,30.1,28.6,00.0,39.1,31.8,08.5,-000.9,0017.09,0006.85,0006.04
2022-03-03 21:33:00,,0824.3,4.99,0.00,30.1,28.8,00.0,39.1,31.9,08.5,-001.7,0017.25,0006.92,0006.11
2022-03-03 21:34:00,,0824.3,5.01,0.00,30.2,28.9,00.0,39.1,31.9,08.6,0000.0,0017.83,0007.06,0006.19
2022-03-03 21:35:00,,0824.3,4.99,0.00,30.2,29.1,00.0,39.1,32.0,08.6,0001.5,0017.91,0007.16,0006.28
2022-03-03 21:36:00,,0824.3,5.01,0.00,30.2,29.2,00.0,39.1,32.0,08.5,0001.4,0017.92,0007.22,0006.35
2022-03-03 21:37:00,,0824.3,4.98,0.00,30.2,29.2,00.0,39.1,32.0,08.4,0000.9,0017.37,0007.31,0006.41
2022-03-03 21:38:00,,0824.3,5.00,0.00,30.3,29.3,00.0,39.1,32.1,08.5,0000.1,0017.21,0007.34,0006.47
2022-03-03 21:39:00,,0824.2,5.01,0.00,30.3,29.4,00.0,39.2,32.1,08.5,-000.4,0017.58,0007.40,0006.54
2022-03-03 21:40:00,,0824.3,5.01,0.00,30.3,29.4,00.0,39.2,32.1,08.4,0000.4,0018.11,0007.46,0006.60
2022-03-03 21:41:00,,0824.2,4.99,0.00,30.4,29.5,00.0,39.2,32.2,08.5,0001.4,0018.49,0007.53,0006.68
2022-03-03 21:42:00,,0824.2,5.02,0.00,30.4,29.6,00.0,39.2,32.2,08.5,0000.3,0019.66,0007.56,0006.75
2022-03-03 21:43:00,,0824.2,4.99,0.00,30.4,29.6,00.0,39.2,32.2,08.5,0000.4,0019.72,0007.65,0006.82
2022-03-03 21:44:00,,0824.2,5.00,0.00,30.4,29.6,00.0,39.3,32.2,08.6,0000.7,0019.35,0007.71,0006.89
2022-03-03 21:45:00,,0824.2,5.01,0.00,30.5,29.7,00.0,39.3,32.3,08.6,-000.7,0018.83,0007.70,0006.92
2022-03-03 21:46:00,,0824.2,4.98,0.00,30.5,29.8,00.0,39.3,32.3,08.5,-002.2,0018.80,0007.69,0006.95
2022-03-03 21:47:00,,0824.1,5.01,0.00,30.5,29.8,00.0,39.3,32.3,08.5,-002.5,0018.01,0007.69,0006.98
2022-03-03 21:48:00,,0824.1,5.00,0.00,30.5,29.8,00.0,39.4,32.3,08.6,-002.9,0017.66,0007.67,0006.99
2022-03-03 21:49:00,,0824.1,4.99,0.00,30.5,28.2,00.0,39.4,31.9,08.9,-002.8,0017.00,0007.64,0006.98
2022-03-03 21:50:00,,0824.1,5.01,0.00,30.3,26.2,00.0,39.3,31.4,08.7,-002.6,0017.11,0007.65,0006.99
2022-03-03 21:51:00,,0824.1,4.99,0.00,30.2,26.1,00.0,39.3,31.3,08.7,-002.8,0016.15,0007.67,0007.03
2022-03-03 21:52:00,,0824.1,4.99,0.00,30.1,26.6,00.0,39.2,31.4,08.9,-003.2,0015.48,0007.68,0007.02
2022-03-03 21:53:00,,0824.1,5.01,0.00,30.0,27.1,00.0,39.1,31.6,09.1,-003.2,0014.26,0007.69,0007.00
2022-03-03 21:54:00,,0824.1,5.00,0.00,30.0,27.5,00.0,39.1,31.6,09.1,-003.1,0013.77,0007.67,0006.99
2022-03-03 21:55:00,,0824.1,5.00,0.00,30.0,27.9,00.0,39.1,31.7,09.0,-002.8,0014.01,0007.70,0007.01
2022-03-03 21:56:00,,0824.1,5.00,0.00,30.0,28.2,00.0,39.1,31.7,08.9,-002.4,0014.30,0007.75,0007.06
2022-03-03 21:57:00,,0824.1,5.00,0.00,30.0,28.4,00.0,39.0,31.8,08.9,-001.9,0014.57,0007.86,0007.11
2022-03-03 21:58:00,,0824.1,5.00,0.00,30.1,28.6,00.0,39.0,31.8,09.0,-001.7,0015.14,0007.91,0007.14
2022-03-03 21:59:00,,0824.0,5.00,0.00,30.1,28.8,00.0,39.0,31.8,08.9,-001.5,0015.22,0007.97,0007.19
